HELI59 VHHH-VHHH

Flight info

Callsign HELI59
Flight time 0h 25m
Altitude 1500
Route GFS SIL GRI WAN
Aircraft H175/M-SDFGIYZ/LB1

Departure

Time 2026-05-04 06:08
Airport Hong Kong International Airport (VHHH)

Arrival

Time 2026-05-04 06:34
Airport Hong Kong International Airport (VHHH)
Time Latitude Longitude Altitude Speed Heading
2026-05-04 06:03 22.29685 113.90892 28 ft 0 kts 341°
2026-05-04 06:06 22.29686 113.90891 28 ft 2 kts 342°
2026-05-04 06:06 22.29719 113.90863 28 ft 7 kts 334°
2026-05-04 06:07 22.29752 113.90850 28 ft 4 kts 343°
2026-05-04 06:07 22.29767 113.90827 28 ft 1 kts 250°
2026-05-04 06:07 22.29764 113.90817 43 ft 10 kts 244°
2026-05-04 06:07 22.29697 113.90605 132 ft 39 kts 262°
2026-05-04 06:08 22.29510 113.90397 361 ft 48 kts 173°
2026-05-04 06:08 22.29317 113.90787 433 ft 80 kts 99°
2026-05-04 06:08 22.29249 113.91436 616 ft 88 kts 87°
2026-05-04 06:08 22.29285 113.92090 796 ft 90 kts 72°
2026-05-04 06:09 22.29457 113.92799 831 ft 100 kts 71°
2026-05-04 06:09 22.29660 113.93500 1087 ft 95 kts 72°
2026-05-04 06:11 22.30126 113.97247 1527 ft 128 kts 97°
2026-05-04 06:13 22.26941 114.02109 1555 ft 157 kts 79°
2026-05-04 06:14 22.28557 114.08319 1172 ft 127 kts 134°
2026-05-04 06:14 22.27794 114.08360 1135 ft 115 kts 213°
2026-05-04 06:15 22.27595 114.07623 1104 ft 103 kts 297°
2026-05-04 06:15 22.28129 114.07308 1168 ft 85 kts
2026-05-04 06:15 22.28676 114.07511 1131 ft 81 kts 52°
2026-05-04 06:15 22.28575 114.07982 1115 ft 74 kts 154°
2026-05-04 06:16 22.28184 114.07710 1098 ft 82 kts 263°
2026-05-04 06:16 22.28468 114.07337 1025 ft 61 kts 16°
2026-05-04 06:16 22.28640 114.07706 991 ft 72 kts 104°
2026-05-04 06:16 22.28175 114.07901 961 ft 88 kts 199°
2026-05-04 06:17 22.27975 114.07360 959 ft 81 kts 302°
2026-05-04 06:17 22.28429 114.07239 1020 ft 73 kts 33°
2026-05-04 06:17 22.28636 114.07720 984 ft 76 kts 102°
2026-05-04 06:17 22.28225 114.07944 1062 ft 77 kts 198°
2026-05-04 06:18 22.28091 114.07430 1012 ft 80 kts 311°
2026-05-04 06:18 22.28536 114.07434 964 ft 74 kts 58°
2026-05-04 06:18 22.28661 114.08073 909 ft 101 kts 79°
2026-05-04 06:20 22.29016 114.15544 698 ft 150 kts 99°
2026-05-04 06:20 22.28803 114.16551 531 ft 119 kts 106°
2026-05-04 06:21 22.28506 114.17427 30 ft 2 kts 77°
2026-05-04 06:21 22.28503 114.17429 25 ft 0 kts 60°
2026-05-04 06:25 22.29069 114.12176 914 ft 140 kts 268°
2026-05-04 06:25 22.28896 114.11134 923 ft 144 kts 243°
2026-05-04 06:26 22.28139 114.10537 889 ft 137 kts 186°
2026-05-04 06:26 22.27211 114.10545 861 ft 130 kts 182°
2026-05-04 06:26 22.26497 114.10021 862 ft 129 kts 243°
2026-05-04 06:26 22.26597 114.09131 810 ft 123 kts 314°
2026-05-04 06:27 22.26674 114.10283 902 ft 123 kts 209°
2026-05-04 06:28 22.26278 114.09468 832 ft 129 kts 273°
2026-05-04 06:28 22.26726 114.08718 813 ft 122 kts 335°
2026-05-04 06:28 22.27520 114.08804 775 ft 122 kts 39°
2026-05-04 06:28 22.27768 114.09625 749 ft 121 kts 103°
2026-05-04 06:29 22.27215 114.10220 922 ft 114 kts 161°
2026-05-04 06:29 22.26442 114.10024 993 ft 132 kts 213°
2026-05-04 06:29 22.25978 114.09107 963 ft 147 kts 265°
2026-05-04 06:29 22.26146 114.07995 943 ft 158 kts 292°
2026-05-04 06:30 22.26449 114.07102 952 ft 160 kts 291°
2026-05-04 06:30 22.26800 114.05947 958 ft 164 kts 285°
2026-05-04 06:30 22.26933 114.04738 1143 ft 154 kts 274°
2026-05-04 06:30 22.26972 114.03664 1605 ft 142 kts 271°
2026-05-04 06:31 22.26979 114.02520 1610 ft 159 kts 272°
2026-05-04 06:31 22.27097 114.01298 1614 ft 169 kts 287°
2026-05-04 06:31 22.27640 114.00158 1611 ft 168 kts 307°
2026-05-04 06:31 22.28327 113.99133 1674 ft 168 kts 310°
2026-05-04 06:32 22.29038 113.98138 1412 ft 168 kts 314°
2026-05-04 06:33 22.29468 113.91399 514 ft 87 kts 282°
2026-05-04 06:34 22.29530 113.90878 238 ft 52 kts 283°
2026-05-04 06:34 22.29586 113.90658 59 ft 6 kts 283°
2026-05-04 06:34 22.29598 113.90580 40 ft 5 kts 283°
2026-05-04 06:34 22.29604 113.90575 30 ft 4 kts 70°
2026-05-04 06:35 22.29604 113.90585 27 ft 2 kts 90°